#timestamp,LO_Frequency,Hit,StdDev 
1557813615.3,286047005.0,N
1557813635.1,286046998.7,N
1557813636.0,286046998.7,N
1557813655.8,286046995.2,N
1557813675.7,286046993.4,N
1557813695.5,286046999.2,N
1557813715.3,286047008.3,N
1557813735.2,286046998.2,N
1557813755.0,286046996.5,N
1557813755.9,286046996.5,N
1557813775.8,286046995.7,N
1557813795.6,286046991.7,N
1557813815.4,286046994.2,N
1557813835.3,286046993.8,N
1557813855.1,286047000.6,N
1557813875.8,286046999.3,N
1557813895.7,286046993.7,N
1557813915.5,286046991.1,N
1557813935.4,286046989.4,N
1557813955.2,286046988.4,N
1557813975.0,286046987.6,N
1557813975.9,286046987.6,N
1557813995.8,286046985.8,N
1557814015.6,286046987.6,N
1557814035.4,286046994.9,N
1557814055.3,286046998.4,N
1557814075.1,286046991.8,N
1557814095.9,286046985.9,N
1557814115.7,286046985.7,N
1557814135.5,286046986.8,N
1557814155.4,286046984.8,N
1557814175.2,286046981.5,Y
1557814195.1,286046991.3,P
1557814196.0,286046991.3,P
1557814215.8,286046991.0,P
1557814235.6,286046993.6,Y
1557814255.5,286046996.9,P
1557814275.3,286047001.8,N
1557814295.2,286047001.1,N
1557814315.9,286047000.0,N
1557814335.7,286046997.6,N
1557814355.6,286046994.1,N
1557814375.4,286046990.3,N
1557814395.2,286046989.7,N
1557814415.1,286046994.2,N
1557814416.0,286046994.2,N
1557814435.8,286046998.7,N
1557814455.7,286047001.0,N
1557814475.5,286047000.1,N
1557814495.3,286047004.7,N
1557814515.2,286047007.3,N
1557814535.0,286047010.8,N
1557814535.9,286047010.8,N
1557814555.8,286047012.9,N
1557814575.6,286047016.0,N
1557814595.4,286047024.6,Y
1557814615.3,286047027.8,P
1557814635.1,286047014.8,N
1557814655.9,286047009.2,N
1557814675.7,286046999.9,N
1557814695.5,286046996.7,N
1557814715.4,286046992.3,N
1557814735.2,286046987.9,N
1557814755.0,286046982.6,N
1557814755.9,286046982.6,N
1557814775.8,286046978.7,N
1557814795.6,286046974.1,N
1557814815.5,286046979.6,N
1557814835.3,286046985.1,N
1557814855.1,286046976.1,N
1557814875.9,286046974.2,N
1557814895.7,286046991.5,N
1557814915.5,286046994.0,N
1557814935.4,286046983.6,N
1557814955.2,286046979.5,N
1557814975.1,286046981.8,N
1557814976.0,286046981.8,N
1557814995.8,286046982.5,N
1557815015.6,286046987.4,N
1557815035.5,286046992.1,N
1557815055.3,286047001.7,N
1557815075.2,286046998.4,N
1557815095.9,286047001.9,N
1557815115.7,286046989.4,N
1557815135.6,286046978.0,N
1557815155.4,286046972.4,N
1557815175.2,286046966.2,N
1557815195.1,286046978.0,N
1557815196.0,286046978.0,N
1557815215.8,286046981.1,N
1557815235.7,286046978.9,N
1557815255.5,286046974.8,Y
1557815275.3,286046994.8,P
1557815295.2,286046991.8,N
1557815315.0,286046980.6,P
1557815315.9,286046980.6,Y
1557815335.8,286046985.6,P
1557815355.6,286046982.1,P
1557815375.4,286046980.3,P
1557815395.3,286046975.6,Y
1557815415.1,286046988.6,P
1557815435.9,286046982.2,P
1557815455.7,286046979.4,P
1557815475.5,286046978.6,Y
1557815495.4,286046998.6,P
1557815515.2,286047000.6,N
1557815535.0,286046995.4,N
1557815535.9,286046995.4,N
1557815555.8,286047001.9,N
1557815575.6,286047016.9,N
1557815595.5,286047011.4,N
1557815615.3,286046998.1,N
1557815635.1,286047000.0,N
1557815655.9,286047000.4,N
1557815675.7,286046995.1,N
1557815695.5,286046997.9,N
1557815715.4,286046999.4,N
1557815735.2,286047010.4,N
1557815755.1,286047021.1,N
1557815756.0,286047021.1,N
1557815775.8,286047016.0,N
1557815795.6,286047014.9,N
1557815815.5,286047008.1,N
1557815835.3,286046999.3,N
1557815855.2,286046991.8,N
1557815875.9,286046991.2,N
1557815895.7,286046989.5,N
1557815915.6,286046993.5,N
1557815935.4,286046995.5,N
1557815955.2,286046990.2,N
1557815975.1,286046990.9,N
1557815976.0,286046990.9,N
1557815995.8,286046988.6,N
1557816015.7,286046984.2,N
1557816035.5,286046985.0,N
1557816055.3,286046992.2,N
1557816075.2,286046989.0,N
1557816095.0,286046987.7,N
1557816095.9,286046987.7,N
1557816115.8,286046982.4,N
1557816135.6,286046979.3,N
1557816155.4,286046972.6,N
1557816175.3,286046969.5,N
1557816195.1,286046968.0,N
1557816215.8,286046964.6,N
1557816235.7,286046966.5,N
1557816255.5,286046975.6,N
1557816275.4,286046966.7,N
1557816295.2,286046967.8,N
1557816315.0,286046967.7,N
1557816315.9,286046967.7,N
1557816335.8,286046966.8,N
1557816355.6,286046963.4,Y
1557816375.4,286046981.0,P
1557816395.3,286046981.4,P
1557816415.1,286046972.8,P
1557816435.9,286046971.8,Y
1557816455.7,286046992.0,P
1557816475.5,286047006.2,N
1557816495.4,286047012.0,N
1557816515.2,286047002.0,N
1557816535.1,286046996.6,N
1557816536.0,286046996.6,N
1557816555.8,286046996.8,N
1557816575.6,286047001.2,N
1557816595.5,286047002.2,N
1557816615.3,286046996.7,N
1557816635.1,286046993.4,N
1557816655.9,286046989.7,N
1557816675.7,286046984.1,N
1557816695.6,286046989.6,N
1557816715.4,286046987.3,N
1557816735.2,286046985.4,N
1557816755.1,286046988.0,N
1557816756.0,286046988.0,N
1557816775.8,286046985.0,N
1557816795.7,286046991.0,N
1557816815.5,286046988.5,N
1557816835.3,286046982.4,N
1557816855.2,286046978.1,N
1557816875.0,286046974.1,Y
1557816875.9,286046974.1,P
1557816895.7,286046985.9,N
1557816915.6,286046995.9,N
1557816935.4,286046988.8,N
1557816955.3,286046983.9,N
1557816975.1,286046982.0,N
1557816976.0,286046982.0,N
1557816995.8,286046975.3,Y
1557817015.7,286046989.3,P
1557817035.5,286046985.9,P
1557817055.4,286046984.8,P
1557817075.2,286046979.2,Y
1557817095.0,286046996.1,P
1557817095.9,286046996.1,N
1557817115.8,286046997.7,N
1557817135.6,286046998.0,N
1557817155.4,286046997.9,N
1557817175.3,286047000.1,N
1557817195.1,286047011.9,N
